This demonstration page uses our WeatherBlox Daily Observations layout. Learn more.

Left ArrowRight Arrow

Hourly Observations for December 31, 2020

Temp ( °F °C ) Dew Point ( °F °C ) Humidity (%) Winds ( mph kmh ) Pressure ( in mb ) Visibility ( mi km ) Precip ( " mm )
12:40 am 00:40 Cloudy with Light Snow 33 0.6 32 0 96 96 W 3 6 30.16 1021 2 3 0.01 0.25
12:49 am 00:49 Cloudy with Light Snow 34 1 32 0 93 93 W 7 11 30.16 1021 1 2 0.02 0.51
12:53 am 00:53 Mostly Cloudy with Light Snow 33 0.6 32 0 96 96 WNW 8 13 30.13 1020 1 2 0.02 0.51
1:23 am 01:23 Cloudy with Light Snow 32 0 32 0 100 100 Calm 30.13 1020 2 3 0.00 0.00
1:31 am 01:31 Cloudy with Light Snow 32 0 32 0 100 100 Calm 30.14 1021 3 5 0.00 0.00
1:38 am 01:38 Cloudy with Light Snow 32 0 32 0 100 100 Calm 30.14 1021 3 5 0.00 0.00
1:53 am 01:53 Cloudy with Light Snow 32 0 32 0 100 100 Calm 30.12 1020 2 3 0.00 0.00
2:11 am 02:11 Cloudy with Light Snow 32 0 32 0 100 100 W 3 6 30.16 1021 5 8 0.01 0.25
2:53 am 02:53 Cloudy with Mist and Fog 32 0 32 0 100 100 W 3 6 30.15 1021 6 10 0.02 0.51
3:53 am 03:53 Cloudy 32 0 30 -1.1 92 92 NNW 3 6 30.15 1021 8 13 0.01 0.25
4:10 am 04:10 Cloudy 32 0 30 -1.1 92 92 NNW 3 6 30.18 1022 9 14 0.00 0.00
4:53 am 04:53 Cloudy 32 0 29 -1.7 88 88 NW 7 11 30.17 1022 9 14 0.00 0.00
5:15 am 05:15 Cloudy 32 0 29 -1.7 88 88 NNW 8 13 30.21 1023 9 14 0.00 0.00
5:53 am 05:53 Cloudy 31 -0.6 27 -2.8 85 85 NNW 8 13 30.19 1022 8 13 0.00 0.00
6:44 am 06:44 Cloudy 30 -1.1 26 -3.3 85 85 N 7 11 30.26 1025 8 13 0.00 0.00
6:53 am 06:53 Cloudy 30 -1.1 26 -3.3 85 85 NNW 8 13 30.23 1024 8 13 0.00 0.00
7:12 am 07:12 Cloudy 29 -1.7 25 -3.9 85 85 N 9 15 30.27 1025 7 11 0.00 0.00
7:53 am 07:53 Cloudy 28 -2.2 24 -4.4 85 85 NNW 7 11 30.27 1025 8 13 0.00 0.00
8:08 am 08:08 Cloudy 28 -2.2 24 -4.4 85 85 N 8 13 30.30 1026 10 16 0.00 0.00
8:53 am 08:53 Cloudy 28 -2.2 23 -5 81 81 NNE 7 11 30.28 1026 8 13 0.00 0.00
9:53 am 09:53 Mostly Cloudy 28 -2.2 22 -5.6 78 78 N 7 11 30.32 1027 8 13 0.00 0.00
10:15 am 10:15 Mostly Sunny 28 -2.2 22 -5.6 78 78 N 6 9 30.35 1028 8 13 0.00 0.00
10:53 am 10:53 Sunny 29 -1.7 22 -5.6 75 75 NNE 5 7 30.33 1027 8 13 0.00 0.00
11:53 am 11:53 Mostly Sunny 30 -1.1 23 -5 75 75 NE 7 11 30.33 1027 8 13 0.00 0.00
12:24 pm 12:24 Mostly Cloudy 30 -1.1 24 -4.4 79 79 NE 5 7 30.34 1027 8 13 0.00 0.00
12:53 pm 12:53 Mostly Cloudy 31 -0.6 24 -4.4 76 76 NNE 8 13 30.32 1027 8 13 0.00 0.00
1:49 pm 13:49 Partly Cloudy 30 -1 25 -4 80 80 VRB 5 7 30.32 1027 8 13 0.00 0.00
1:53 pm 13:53 Mostly Sunny 32 0 24 -4.4 73 73 NE 7 11 30.30 1026 8 13 0.00 0.00
2:53 pm 14:53 Mostly Sunny 32 0 25 -3.9 75 75 NNE 6 9 30.30 1026 7 11 0.00 0.00
3:53 pm 15:53 Sunny 32 0 25 -3.9 75 75 E 9 15 30.30 1026 8 13 0.00 0.00
4:53 pm 16:53 Sunny 31 -0.6 25 -3.9 79 79 E 9 15 30.32 1027 10 16 0.00 0.00
5:53 pm 17:53 Clear 28 -2.2 24 -4.4 85 85 ENE 5 7 30.35 1028 10 16 0.00 0.00
6:24 pm 18:24 Mostly Cloudy 29 -1.7 25 -3.9 85 85 E 6 9 30.37 1028 10 16 0.00 0.00
6:53 pm 18:53 Cloudy 30 -1.1 25 -3.9 82 82 E 8 13 30.35 1028 10 16 0.00 0.00
7:26 pm 19:26 Partly Cloudy 30 -1.1 25 -3.9 82 82 E 7 11 30.38 1029 9 14 0.00 0.00
7:44 pm 19:44 Mostly Cloudy 30 -1.1 25 -3.9 82 82 E 7 11 30.38 1029 9 14 0.00 0.00
7:53 pm 19:53 Cloudy 30 -1.1 25 -3.9 82 82 ENE 7 11 30.37 1028 9 14 0.00 0.00
8:53 pm 20:53 Cloudy 31 -0.6 26 -3.3 82 82 E 6 9 30.36 1028 9 14 0.00 0.00
9:53 pm 21:53 Cloudy 31 -0.6 26 -3.3 82 82 E 12 19 30.35 1028 8 13 0.00 0.00
10:53 pm 22:53 Cloudy 31 -0.6 26 -3.3 82 82 ENE 9 15 30.35 1028 7 11 0.00 0.00
11:53 pm 23:53 Cloudy 31 -0.6 26 -3.3 82 82 ESE 5 7 30.36 1028 8 13 0.00 0.00

Powered by AerisWeather